Location: Houston
(29.7630°N, 95.3630°W)
Time: 15:17:00
(UTC-05:00)

Amateur Radio Satellites - All Passes

Search period start: 30 September 2016 14:47
Search period end: 01 October 2016 14:47
Location: Houston, 29.7630°N, 95.3630°W

Satellite Date Start Highest point End Downlink Frequencies (MHz)
Time Altitude Azimuth
YUBILEINY 30 Sep 14:51:17 15:00:01 81° 84° (E) 15:08:43 435.215
ITAMSAT 1 30 Sep 15:03:16 15:07:50 33° 71° (ENE) 15:12:25 435.822/435.867
Gurwin Techsat 1B 30 Sep 15:24:49 15:29:37 35° 261° (W) 15:34:26 435.225
TISAT 1 30 Sep 15:29:16 15:32:34 23° 288° (WNW) 15:35:52 437.305
SO-50 30 Sep 15:32:58 15:37:21 34° 302° (WNW) 15:41:43 436.795
ITUPSAT 1 30 Sep 15:36:14 15:40:57 55° 101° (E) 15:45:39 437.325
AO-7 30 Sep 15:46:24 15:54:27 56° 69° (ENE) 16:02:30 29.400- 29.500
SWISSCUBE 30 Sep 15:47:35 15:52:25 87° 102° (ESE) 15:57:13 437.505
Cosmos 2504 30 Sep 15:47:53 15:55:31 75° 84° (E) 16:03:44 435.465 / 435.565
BEESAT 30 Sep 16:00:15 16:05:02 76° 284° (WNW) 16:09:48 436.000
PHONESAT 2.4 30 Sep 16:20:36 16:23:20 34° 215° (SW) 16:26:02 2401.200-2431.200
AIST 1 30 Sep 16:34:09 16:38:10 39° 81° (E) 16:42:09
Cosmos 2491 30 Sep 16:37:55 16:45:26 31° 284° (WNW) 16:53:03 435.465 / 435.565
ITAMSAT 1 30 Sep 16:43:22 16:47:15 22° 264° (W) 16:51:11 435.822/435.867
YUBILEINY 30 Sep 16:51:19 16:55:40 15° 279° (W) 17:00:00 435.215
BRITE-PL 30 Sep 16:58:22 17:01:12 14° 67° (ENE) 17:03:59 437.365/2234.400
MOZHAYETS 4 30 Sep 17:00:00 17:04:40 79° 100° (E) 17:09:18
KKS-1 30 Sep 17:03:39 17:07:55 48° 100° (E) 17:12:12 437.445
O/OREOS (USA 219) 30 Sep 17:11:55 17:16:12 37° 68° (ENE) 17:20:25 437.305
HORYU 2 30 Sep 17:16:03 17:19:54 30° 72° (ENE) 17:23:44 437.375
ITUPSAT 1 30 Sep 17:16:29 17:18:15 12° 294° (WNW) 17:20:01 437.325
STARS 30 Sep 17:28:59 17:33:08 42° 100° (E) 17:37:17 437.465
AO-7 30 Sep 17:40:55 17:47:24 25° 262° (W) 17:53:56 29.400- 29.500
Cosmos 2504 30 Sep 17:44:06 17:48:07 15° 276° (W) 17:52:15 435.465 / 435.565
ISS 30 Sep 17:55:46 17:56:09 10° 125° (SE) 17:56:33 145.825
JUGNU 30 Sep 18:03:22 18:06:55 16° 163° (SSE) 18:10:26 437.505
LilacSat-2 30 Sep 18:07:03 18:09:25 16° 71° (ENE) 18:11:46 437.200
GOMX 1 30 Sep 18:08:15 18:12:52 29° 73° (ENE) 18:17:18 467.674
AIST 1 30 Sep 18:14:28 18:15:17 10° 274° (W) 18:16:07
DOVE 4 30 Sep 18:16:41 18:18:56 13° 69° (ENE) 18:21:08 437.250
CUSAT 1 30 Sep 18:18:39 18:23:11 21° 83° (E) 18:28:22 437.405
CUBESAT XI-V 30 Sep 18:28:02 18:32:44 88° 100° (E) 18:37:21 437.345
NOAA 18 30 Sep 18:31:04 18:35:55 34° 71° (ENE) 18:40:47 137.9125
BRITE-PL 30 Sep 18:33:25 18:39:03 65° 260° (W) 18:44:38 437.365/2234.400
NOAA 15 30 Sep 18:36:54 18:42:07 62° 75° (ENE) 18:47:22 137.62
KKS-1 30 Sep 18:42:41 18:44:00 11° 293° (WNW) 18:45:20 437.445
O/OREOS (USA 219) 30 Sep 18:52:46 18:55:11 14° 261° (W) 18:57:35 437.305
Cosmos 2499 30 Sep 18:53:12 18:55:46 12° 71° (ENE) 18:58:22 435.465 / 435.565
HORYU 2 30 Sep 18:53:34 18:56:25 17° 264° (W) 18:59:16 437.375
CUTE-I 30 Sep 19:03:21 19:08:39 89° 257° (WSW) 19:13:59 437.470
Cubesat XI-IV 30 Sep 19:04:13 19:09:31 88° 245° (WSW) 19:14:52 437.490
STARS 30 Sep 19:07:15 19:09:04 12° 292° (WNW) 19:10:52 437.465
GONETS M04 30 Sep 19:15:21 19:22:14 25° 74° (ENE) 19:29:02
HO-68 30 Sep 19:20:03 19:25:21 23° 64° (ENE) 19:30:39 435.675
RS-15 30 Sep 19:27:49 19:38:55 62° 110° (ESE) 19:50:39 29.354- 29.394
ISS 30 Sep 19:29:11 19:32:17 43° 316° (NW) 19:35:24 145.825
AO-85 30 Sep 19:34:12 19:38:03 20° 110° (ESE) 19:41:46 145.980
LilacSat-2 30 Sep 19:40:30 19:43:29 22° 263° (W) 19:46:29 437.200
GOMX 1 30 Sep 19:46:18 19:50:47 26° 263° (W) 19:55:08 467.674
JUGNU 30 Sep 19:50:25 19:55:25 28° 172° (S) 20:00:22 437.505
DOVE 4 30 Sep 19:51:17 19:56:12 51° 260° (W) 20:00:53 437.250
CUSAT 1 30 Sep 19:58:29 20:04:24 51° 283° (WNW) 20:11:39 437.405
SEEDS 30 Sep 19:59:55 20:02:51 19° 71° (ENE) 20:05:47 437.485
CUTE 1.7 + AOD 2 30 Sep 20:03:29 20:07:13 31° 73° (ENE) 20:10:57 437.475
CANX-2 30 Sep 20:05:10 20:09:05 38° 74° (ENE) 20:13:02 2200.000
NOAA 18 30 Sep 20:12:15 20:16:32 23° 263° (W) 20:20:49 137.9125
AAUSAT CUBESAT 2 30 Sep 20:14:12 20:16:16 14° 69° (ENE) 20:18:21 437.432
DANDE 30 Sep 20:18:04 20:22:57 90° 216° (SW) 20:29:35 436.750
NOAA 15 30 Sep 20:20:27 20:22:10 11° 267° (W) 20:23:54 137.62
CINEMA 3 30 Sep 20:40:35 20:45:01 57° 259° (W) 20:49:17 145.822/145.860
Cosmos 2499 30 Sep 20:41:43 20:49:34 87° 85° (E) 20:58:03 435.465 / 435.565
STRAND 1 30 Sep 20:46:26 20:51:36 80° 284° (WNW) 20:56:45 437.568
SRMSAT 30 Sep 20:53:41 20:57:45 19° 165° (SSE) 21:01:49 437.500
COMPASS 1 30 Sep 20:59:23 21:03:31 71° 78° (ENE) 21:07:42 437.405
HO-68 30 Sep 21:05:34 21:12:32 55° 258° (WSW) 21:19:32 435.675
GONETS M04 30 Sep 21:10:52 21:19:21 55° 270° (W) 21:27:46
AO-85 30 Sep 21:13:20 21:18:16 39° 300° (WNW) 21:22:57 145.980
FUNcube-1 30 Sep 21:16:37 21:20:06 27° 73° (ENE) 21:23:35 145.935
CUBEBUG 2 30 Sep 21:26:36 21:30:48 68° 259° (WSW) 21:34:56 437.445
SEEDS 30 Sep 21:34:50 21:38:19 25° 263° (W) 21:41:49 437.485
UWE-3 30 Sep 21:37:50 21:42:00 80° 259° (W) 21:46:09 435.000/436.395/437.385
JUGNU 30 Sep 21:38:46 21:44:00 32° 182° (S) 21:49:11 437.505
PRISM 30 Sep 21:39:48 21:43:23 29° 98° (E) 21:46:55 437.425
CUTE 1.7 + AOD 2 30 Sep 21:40:36 21:43:03 15° 266° (W) 21:45:30 437.475
RS-15 30 Sep 21:41:43 21:51:56 35° 311° (NW) 22:02:41 29.354- 29.394
CANX-2 30 Sep 21:43:25 21:45:02 12° 266° (W) 21:46:39 2200.000
AAUSAT CUBESAT 2 30 Sep 21:47:36 21:51:22 34° 262° (W) 21:55:12 437.432
Oscar 11 30 Sep 21:51:19 21:55:37 85° 77° (ENE) 21:59:57 145.826/435.025
HUMSAT D 30 Sep 21:53:55 21:55:49 13° 69° (ENE) 21:57:44 437.325/437.525
ZACube-1 30 Sep 21:59:49 22:03:57 71° 259° (W) 22:08:04 437.345
TIGRISAT 30 Sep 22:26:07 22:27:07 11° 94° (E) 22:28:07 435.000
Cosmos 2499 30 Sep 22:38:41 22:41:46 13° 277° (W) 22:44:56 435.465 / 435.565
DELFI C3 30 Sep 22:39:16 22:43:14 64° 259° (W) 22:47:13 145.870
SRMSAT 30 Sep 22:41:21 22:46:25 29° 174° (S) 22:51:28 437.500
FUNcube-1 30 Sep 22:53:45 22:56:18 16° 265° (W) 22:58:53 145.935
UNISAT 6 30 Sep 23:04:56 23:09:05 37° 99° (E) 23:13:19 437.425
PRISM 30 Sep 23:15:55 23:18:23 16° 290° (WNW) 23:20:51 437.425
BEESAT 3 30 Sep 23:18:38 23:19:57 11° 108° (ESE) 23:21:15 437.485
ESTCUBE 1 30 Sep 23:25:22 23:29:03 25° 71° (ENE) 23:32:46 437.505/2401.250
HUMSAT D 30 Sep 23:27:23 23:31:04 34° 262° (W) 23:34:48 437.325/437.525
JUGNU 30 Sep 23:27:54 23:32:33 24° 192° (SSW) 23:37:10 437.505
ANTELSAT 30 Sep 23:39:54 23:44:23 82° 284° (WNW) 23:48:58 437.575/2403.000
POPSAT HIP 1 30 Sep 23:53:39 23:55:34 13° 95° (E) 23:57:30 437.405
UKube-1 30 Sep 23:55:04 23:55:45 10° 67° (ENE) 23:56:26 .
TIGRISAT 30 Sep 23:59:37 00:03:55 49° 285° (WNW) 00:08:20 435.000
AISAT 01 Oct 00:03:02 00:07:02 33° 73° (ENE) 00:11:02 437.250
NANOSAT C BR1 01 Oct 00:06:39 00:09:35 18° 96° (E) 00:12:31 145.865
SO-50 01 Oct 00:09:55 00:14:12 41° 59° (ENE) 00:18:23 436.795
M-CUBED/EXP-1 PRIME 01 Oct 00:15:00 00:18:45 33° 71° (ENE) 00:22:16 437.505
BEESAT 2 01 Oct 00:18:47 00:22:15 30° 112° (ESE) 00:25:45 435.950
DX 1 01 Oct 00:26:38 00:30:38 36° 73° (ENE) 00:34:39 434.975-435.025
SRMSAT 01 Oct 00:30:02 00:35:08 30° 184° (S) 00:40:14 437.500
QB50P2 01 Oct 00:32:23 00:36:27 46° 100° (E) 00:40:31 145.880/145.840
POLYITAN 1 01 Oct 00:34:33 00:38:37 46° 99° (E) 00:42:42 437.675
JAS-2 01 Oct 00:38:17 00:45:39 45° 98° (E) 00:52:24 435.910
CUBEBUG 1 01 Oct 00:41:11 00:45:33 62° 259° (W) 00:49:55 437.445
50 SAT 01 Oct 00:42:34 00:46:11 78° 260° (W) 00:49:49 437.505
UNISAT 6 01 Oct 00:42:52 00:45:28 15° 290° (WNW) 00:48:05 437.425
VELOX 1 01 Oct 00:45:48 00:50:14 75° 258° (WSW) 00:54:41 145.980
BEESAT 3 01 Oct 00:53:35 00:57:11 36° 300° (WNW) 01:00:50 437.485
BUGSAT 1 01 Oct 00:56:19 00:59:39 25° 98° (E) 01:03:00 437.445
Cosmos 2491 01 Oct 01:00:39 01:05:21 15° 70° (ENE) 01:09:59 435.465 / 435.565
ESTCUBE 1 01 Oct 01:02:15 01:05:44 22° 264° (W) 01:09:15 437.505/2401.250
SPROUT 01 Oct 01:05:54 01:10:10 82° 258° (WSW) 01:14:26 437.525
DUCHIFAT 1 01 Oct 01:07:25 01:11:36 76° 284° (WNW) 01:15:48 145.980
AUBIESAT-1 01 Oct 01:08:38 01:12:41 56° 255° (WSW) 01:16:27 437.475
QB50P1 01 Oct 01:13:28 01:17:34 53° 285° (WNW) 01:21:41 145.935-145.965
JUGNU 01 Oct 01:18:59 01:20:59 12° 200° (SSW) 01:22:59 437.505
UKube-1 01 Oct 01:27:05 01:31:17 50° 259° (W) 01:35:29 .
POPSAT HIP 1 01 Oct 01:27:33 01:31:24 36° 286° (WNW) 01:35:16 437.405
AISAT 01 Oct 01:40:50 01:43:31 16° 265° (W) 01:46:11 437.250
NANOSAT C BR1 01 Oct 01:41:45 01:45:13 25° 288° (WNW) 01:48:41 145.865
M-CUBED/EXP-1 PRIME 01 Oct 01:51:07 01:53:12 13° 259° (WSW) 01:55:12 437.505
SO-50 01 Oct 01:51:57 01:54:14 14° 252° (WSW) 01:56:29 436.795
YUBILEINY 01 Oct 01:52:01 01:57:09 17° 82° (E) 02:02:14 435.215
BEESAT 2 01 Oct 01:57:41 02:00:05 16° 306° (NW) 02:02:31 435.950
ISS 01 Oct 02:03:03 02:04:20 12° 34° (NE) 02:05:37 145.825
DX 1 01 Oct 02:04:35 02:06:53 14° 265° (W) 02:09:09 434.975-435.025
Gurwin Techsat 1B 01 Oct 02:09:05 02:11:44 14° 94° (E) 02:14:20 435.225
QB50P2 01 Oct 02:10:52 02:11:48 11° 292° (WNW) 02:12:43 145.880/145.840
POLYITAN 1 01 Oct 02:13:01 02:13:57 11° 292° (WNW) 02:14:54 437.675
TISAT 1 01 Oct 02:13:47 02:17:58 71° 259° (W) 02:22:07 437.305
SRMSAT 01 Oct 02:19:32 02:23:48 21° 194° (SSW) 02:28:06 437.500
Oscar 19 01 Oct 02:20:58 02:25:52 44° 100° (E) 02:30:43 437.125/150
JAS-2 01 Oct 02:23:43 02:30:13 30° 293° (WNW) 02:36:20 435.910
RS-15 01 Oct 02:28:32 02:31:43 11° 24° (NNE) 02:34:53 29.354- 29.394
BUGSAT 1 01 Oct 02:32:08 02:34:48 17° 289° (WNW) 02:37:29 437.445
ITUPSAT 1 01 Oct 02:37:17 02:41:28 32° 72° (ENE) 02:45:40 437.325
SWISSCUBE 01 Oct 02:47:58 02:52:32 49° 74° (ENE) 02:57:08 437.505
Cosmos 2491 01 Oct 02:54:13 03:03:04 84° 266° (W) 03:11:51 435.465 / 435.565
BEESAT 01 Oct 03:00:26 03:05:06 61° 75° (ENE) 03:09:48 436.000
PCSat 01 Oct 03:09:03 03:13:19 24° 106° (ESE) 03:17:36 145.827
AIST 2 01 Oct 03:10:21 03:14:25 89° 109° (ESE) 03:18:33 435.215
ITAMSAT 1 01 Oct 03:22:43 03:26:27 20° 96° (E) 03:30:10 435.822/435.867
ISS 01 Oct 03:37:50 03:41:03 56° 229° (SW) 03:44:16 145.825
YUBILEINY 01 Oct 03:44:08 03:52:54 75° 276° (W) 04:01:41 435.215
Gurwin Techsat 1B 01 Oct 03:46:42 03:51:52 53° 287° (WNW) 03:57:01 435.225
AO-7 01 Oct 03:55:45 04:02:23 26° 98° (E) 04:08:59 29.400- 29.500
MOZHAYETS 4 01 Oct 03:55:59 04:00:08 35° 73° (ENE) 04:04:18
KKS-1 01 Oct 03:56:26 03:59:49 22° 71° (ENE) 04:03:11 437.445
Oscar 19 01 Oct 04:01:37 04:04:45 17° 293° (WNW) 04:07:53 437.125/150
ITUPSAT 1 01 Oct 04:15:55 04:19:16 19° 264° (W) 04:22:39 437.325
Cosmos 2504 01 Oct 04:19:23 04:26:50 74° 94° (E) 04:34:00 435.465 / 435.565
STARS 01 Oct 04:20:39 04:23:38 18° 70° (ENE) 04:26:39 437.465
SWISSCUBE 01 Oct 04:28:41 04:30:30 12° 266° (W) 04:32:19 437.505
RS-15 01 Oct 04:37:27 04:48:59 42° 53° (NE) 05:00:08 29.354- 29.394
PCSat 01 Oct 04:51:37 04:56:29 33° 300° (WNW) 05:01:22 145.827
Cosmos 2491 01 Oct 04:56:14 04:58:28 11° 281° (W) 05:00:43 435.465 / 435.565
AIST 1 01 Oct 04:57:02 05:00:56 32° 91° (E) 05:04:50
ITAMSAT 1 01 Oct 05:01:10 05:05:55 37° 288° (WNW) 05:10:42 435.822/435.867
CUSAT 1 01 Oct 05:03:02 05:04:16 10° 63° (ENE) 05:05:27 437.405
CUBESAT XI-V 01 Oct 05:25:07 05:29:32 42° 74° (ENE) 05:33:57 437.345
KKS-1 01 Oct 05:32:33 05:36:11 25° 263° (W) 05:39:50 437.445
MOZHAYETS 4 01 Oct 05:34:37 05:37:20 15° 266° (W) 05:40:02
AO-7 01 Oct 05:47:19 05:55:18 54° 292° (WNW) 06:03:18 29.400- 29.500
AO-85 01 Oct 05:51:21 05:54:56 31° 58° (ENE) 05:58:23 145.980
STARS 01 Oct 05:55:58 05:59:44 28° 262° (W) 06:03:32 437.465
Cosmos 2504 01 Oct 06:17:18 06:20:43 14° 288° (WNW) 06:24:06 435.465 / 435.565
AIST 1 01 Oct 06:36:06 06:38:33 15° 284° (WNW) 06:40:59
CUSAT 1 01 Oct 06:40:27 06:47:38 87° 80° (E) 06:53:13 437.405
BRITE-PL 01 Oct 06:45:28 06:50:00 70° 101° (E) 06:54:14 437.365/2234.400
HORYU 2 01 Oct 06:48:35 06:52:57 55° 285° (WNW) 06:57:20 437.375
RS-15 01 Oct 06:49:55 07:01:34 52° 252° (WSW) 07:12:51 29.354- 29.394
NOAA 15 01 Oct 06:58:27 07:03:22 38° 99° (E) 07:08:14 137.62
NOAA 18 01 Oct 06:59:26 07:03:47 24° 97° (E) 07:08:08 137.9125
DANDE 01 Oct 07:02:55 07:11:04 58° 79° (ENE) 07:18:02 436.750
CUBESAT XI-V 01 Oct 07:04:37 07:07:01 14° 266° (W) 07:09:25 437.345
O/OREOS (USA 219) 01 Oct 07:17:42 07:22:10 58° 290° (WNW) 07:26:41 437.305
LilacSat-2 01 Oct 07:18:42 07:22:30 56° 100° (E) 07:26:18 437.200
CUTE-I 01 Oct 07:26:32 07:31:51 62° 101° (ESE) 07:37:09 437.470
Cubesat XI-IV 01 Oct 07:27:35 07:32:54 63° 102° (ESE) 07:38:13 437.490
AO-85 01 Oct 07:33:06 07:34:57 13° 252° (WSW) 07:36:46 145.980
GOMX 1 01 Oct 07:54:05 07:58:07 43° 285° (WNW) 08:02:02 467.674
STRAND 1 01 Oct 07:56:09 08:01:13 78° 76° (ENE) 08:06:20 437.568
DOVE 4 01 Oct 07:56:17 08:00:25 67° 102° (ESE) 08:04:33 437.250
CANX-2 01 Oct 07:58:32 07:59:41 11° 93° (E) 08:00:50 2200.000
GONETS M04 01 Oct 08:08:14 08:15:57 35° 87° (E) 08:23:42
NOAA 15 01 Oct 08:39:03 08:42:48 20° 292° (WNW) 08:46:31 137.62
NOAA 18 01 Oct 08:39:31 08:44:22 33° 290° (WNW) 08:49:14 137.9125
HO-68 01 Oct 08:39:55 08:46:36 42° 100° (E) 08:53:15 435.675
CINEMA 3 01 Oct 08:40:49 08:44:56 50° 100° (E) 08:49:13 145.822/145.860
PHONESAT 2.4 01 Oct 08:42:32 08:45:24 62° 147° (SSE) 08:48:16 2401.200-2431.200
DANDE 01 Oct 08:47:01 08:53:03 23° 276° (W) 08:58:29 436.750
COMPASS 1 01 Oct 08:49:11 08:52:04 18° 95° (E) 08:54:56 437.405
CUTE-I 01 Oct 09:08:59 09:11:17 13° 295° (WNW) 09:13:37 437.470
Cubesat XI-IV 01 Oct 09:10:06 09:12:22 13° 295° (WNW) 09:14:38 437.490
Cosmos 2499 01 Oct 09:11:43 09:18:56 84° 94° (E) 09:25:59 435.465 / 435.565
BEESAT 3 01 Oct 09:16:44 09:19:31 18° 56° (NE) 09:22:16 437.485
CUBEBUG 2 01 Oct 09:23:00 09:27:05 38° 99° (E) 09:31:18 437.445
SEEDS 01 Oct 09:23:44 09:28:00 82° 99° (E) 09:32:14 437.485
CUTE 1.7 + AOD 2 01 Oct 09:29:27 09:33:39 55° 284° (WNW) 09:37:49 437.475
CANX-2 01 Oct 09:31:35 09:35:41 43° 285° (WNW) 09:39:44 2200.000
UWE-3 01 Oct 09:33:12 09:37:09 32° 98° (E) 09:41:11 435.000/436.395/437.385
AAUSAT CUBESAT 2 01 Oct 09:35:21 09:39:27 54° 100° (E) 09:43:31 437.432
Oscar 11 01 Oct 09:45:04 09:48:38 24° 97° (E) 09:52:11 145.826/435.025
ZACube-1 01 Oct 09:53:53 09:57:54 34° 98° (E) 10:01:58 437.345
PRISM 01 Oct 09:57:34 10:01:36 49° 260° (W) 10:05:39 437.425
UNISAT 6 01 Oct 09:59:30 10:01:57 15° 70° (ENE) 10:04:23 437.425
GONETS M04 01 Oct 10:04:23 10:12:29 40° 282° (WNW) 10:20:40
BEESAT 2 01 Oct 10:19:21 10:23:13 45° 61° (ENE) 10:27:03 435.950
PHONESAT 2.4 01 Oct 10:19:26 10:21:38 19° 342° (NNW) 10:23:51 2401.200-2431.200
DELFI C3 01 Oct 10:23:11 10:26:28 24° 97° (E) 10:29:42 145.870
COMPASS 1 01 Oct 10:24:03 10:27:32 26° 287° (WNW) 10:31:01 437.405
HO-68 01 Oct 10:28:03 10:34:00 30° 294° (WNW) 10:39:58 435.675
ANTELSAT 01 Oct 10:33:01 10:36:59 39° 74° (ENE) 10:40:56 437.575/2403.000
FUNcube-1 01 Oct 10:45:28 10:49:47 58° 284° (WNW) 10:54:12 145.935
TIGRISAT 01 Oct 10:52:09 10:56:22 66° 76° (ENE) 11:00:34 435.000
BEESAT 3 01 Oct 10:53:45 10:57:06 26° 249° (WSW) 11:00:26 437.485
CUBEBUG 2 01 Oct 11:01:03 11:03:22 14° 290° (WNW) 11:05:43 437.445
UWE-3 01 Oct 11:10:29 11:13:20 17° 289° (WNW) 11:16:13 435.000/436.395/437.385
Cosmos 2499 01 Oct 11:11:00 11:12:44 11° 290° (WNW) 11:14:27 435.465 / 435.565
HUMSAT D 01 Oct 11:16:01 11:20:14 56° 100° (E) 11:24:27 437.325/437.525
QB50P2 01 Oct 11:20:20 11:22:57 16° 70° (ENE) 11:25:33 145.880/145.840
Oscar 11 01 Oct 11:21:19 11:24:33 21° 289° (WNW) 11:27:49 145.826/435.025
POLYITAN 1 01 Oct 11:22:31 11:25:06 16° 70° (ENE) 11:27:42 437.675
ZACube-1 01 Oct 11:31:11 11:33:51 16° 290° (WNW) 11:36:34 437.345
UNISAT 6 01 Oct 11:34:32 11:38:22 32° 262° (W) 11:42:10 437.425
AIST 2 01 Oct 11:39:58 11:40:48 10° 51° (NE) 11:41:38 435.215
DUCHIFAT 1 01 Oct 11:53:24 11:57:09 33° 73° (ENE) 12:00:54 145.980
PHONESAT 2.4 01 Oct 11:57:57 11:58:26 10° 358° (N) 11:58:57 2401.200-2431.200
DELFI C3 01 Oct 11:58:24 12:01:04 17° 289° (WNW) 12:03:43 145.870
QB50P1 01 Oct 11:59:38 12:03:40 47° 75° (ENE) 12:07:43 145.935-145.965
ANTELSAT 01 Oct 12:12:15 12:13:48 12° 266° (W) 12:15:21 437.575/2403.000
POPSAT HIP 1 01 Oct 12:13:24 12:17:34 72° 77° (ENE) 12:21:45 437.405
50 SAT 01 Oct 12:17:45 12:19:22 12° 95° (E) 12:20:58 437.505
NANOSAT C BR1 01 Oct 12:26:54 12:31:05 79° 259° (W) 12:35:16 145.865
JAS-2 01 Oct 12:27:00 12:33:21 72° 74° (ENE) 12:40:34 435.910
CUBEBUG 1 01 Oct 12:35:56 12:39:56 37° 99° (E) 12:43:54 437.445
VELOX 1 01 Oct 12:42:12 12:46:08 32° 98° (E) 12:50:02 145.980
AUBIESAT-1 01 Oct 12:54:30 12:55:46 12° 101° (E) 12:57:04 437.475
QB50P2 01 Oct 12:54:47 12:58:27 29° 262° (W) 13:02:08 145.880/145.840
POLYITAN 1 01 Oct 12:56:58 13:00:38 29° 262° (W) 13:04:17 437.675
SPROUT 01 Oct 12:58:12 13:01:47 26° 98° (E) 13:05:20 437.525
ESTCUBE 1 01 Oct 12:59:33 13:04:02 64° 285° (WNW) 13:08:29 437.505/2401.250
BUGSAT 1 01 Oct 13:14:24 13:18:26 57° 259° (W) 13:22:27 437.445
AIST 2 01 Oct 13:15:28 13:19:36 58° 246° (WSW) 13:23:42 435.215
UKube-1 01 Oct 13:20:06 13:24:10 40° 100° (E) 13:28:12 .
Gurwin Techsat 1B 01 Oct 13:25:08 13:27:26 13° 66° (ENE) 13:29:44 435.225
DUCHIFAT 1 01 Oct 13:30:46 13:32:52 14° 265° (W) 13:34:58 145.980
Oscar 19 01 Oct 13:31:54 13:36:35 35° 72° (ENE) 13:41:16 437.125/150
PHONESAT 2.4 01 Oct 13:33:25 13:35:19 16° 15° (NNE) 13:37:13 2401.200-2431.200
M-CUBED/EXP-1 PRIME 01 Oct 13:33:34 13:36:49 64° 106° (ESE) 13:40:11 437.505
AISAT 01 Oct 13:35:02 13:39:15 49° 285° (WNW) 13:43:28 437.250
PCSat 01 Oct 13:44:53 13:50:11 54° 63° (ENE) 13:55:28 145.827
50 SAT 01 Oct 13:49:45 13:52:49 26° 287° (WNW) 13:55:53 437.505
Cosmos 2491 01 Oct 13:53:48 14:00:02 22° 83° (E) 14:06:16 435.465 / 435.565
DX 1 01 Oct 13:56:27 14:00:38 48° 286° (WNW) 14:04:47 434.975-435.025
YUBILEINY 01 Oct 14:02:14 14:10:20 42° 79° (ENE) 14:18:24 435.215
TISAT 1 01 Oct 14:03:59 14:07:31 26° 98° (E) 14:11:03 437.305
CUBEBUG 1 01 Oct 14:13:40 14:15:50 14° 291° (WNW) 14:18:00 437.445
JAS-2 01 Oct 14:15:47 14:19:05 14° 271° (W) 14:22:34 435.910
SO-50 01 Oct 14:17:35 14:22:20 57° 114° (ESE) 14:27:03 436.795
VELOX 1 01 Oct 14:19:34 14:22:16 16° 291° (WNW) 14:24:59 145.980
Cosmos 2504 01 Oct 14:19:48 14:24:38 17° 74° (ENE) 14:29:37 435.465 / 435.565
AUBIESAT-1 01 Oct 14:27:29 14:30:12 24° 290° (WNW) 14:32:58 437.475
SPROUT 01 Oct 14:34:32 14:37:29 19° 289° (WNW) 14:40:26 437.525
ITAMSAT 1 01 Oct 14:35:33 14:38:46 17° 67° (ENE) 14:41:59 435.822/435.867
